Simultaneous Nadir Overpasses (SNOs) Predictions

Prediction of SNOs between NOAA-19 and NPP Satellite Orbit:

Table of predicted SNOs for the next 14.0 days since TLE Epoch: 12/11/2016
Index Date (NOAA-19) Time (NOAA-19) Lat,Lon (NOAA-19) SZA (NOAA-19 ) Date (NPP) Time (NPP) Lat,Lon (NPP) SZA (NPP ) Distance(km) Time Diff (sec)
1 12/12/2016 03:57:43 80.93, 68.68 107.11 12/12/2016 03:58:45 80.93, 68.87 107.06 3.29 62
2 12/12/2016 04:48:45 -80.93,-123.99 72.90 12/12/2016 04:49:31 -80.94,-124.16 72.89 3.24 46
3 12/12/2016 05:39:44 80.93, 43.48 107.09 12/12/2016 05:40:15 80.93, 43.45 107.07 0.83 31
4 12/12/2016 06:30:46 -80.93,-149.19 72.92 12/12/2016 06:31:00 -80.93,-149.21 72.93 1.04 14
5 12/12/2016 07:21:46 80.93, 17.90 107.10 12/12/2016 07:21:45 80.93, 18.04 107.08 2.39 1
6 12/12/2016</
